GFSSE_500_spd_159.txt.gz
Wind_Speed
7 10 10 10 8 8 9 10 14 20 18 13 12 11 9 9 8 6 7 8 8 8 7 6 4 4 7 7 8 7 7 7 6 5 5 6 5 5 5 4 4 4 3
8 13 14 11 9 8 12 11 8 20 17 17 13 11 10 8 7 6 5 7 7 8 6 5 5 6 8 8 7 8 7 6 6 6 5 4 5 4 4 3 4 4 3
9 13 14 12 11 10 10 9 10 19 21 19 14 11 12 8 6 4 4 6 6 7 6 6 7 7 8 8 8 6 5 6 5 5 5 6 5 5 5 5 4 3 4
9 12 14 14 12 11 10 13 13 27 25 18 14 11 13 8 7 6 4 7 6 6 6 7 7 8 8 8 6 6 7 7 6 6 5 5 6 6 6 5 6 6 6
4 9 14 15 14 15 12 16 16 21 20 17 13 13 15 10 7 6 6 8 6 5 6 7 8 7 7 8 6 9 8 7 8 5 4 6 7 4 3 4 5 5 5
2 9 14 15 16 17 16 18 18 21 20 18 15 13 13 10 7 8 7 6 5 6 6 7 7 6 7 7 8 6 7 8 8 7 6 7 5 4 4 4 4 5 3
2 10 14 16 16 18 20 20 20 20 20 17 15 15 11 9 7 7 7 7 6 6 7 6 5 7 7 8 7 8 9 10 11 9 8 5 4 6 5 5 7 10 3
6 10 14 16 16 17 19 21 22 22 17 14 14 16 12 9 9 8 10 9 8 7 7 6 6 7 10 7 8 7 5 7 6 6 5 4 5 7 6 8 9 12 10
9 10 16 16 17 17 16 20 23 20 16 11 14 16 14 10 9 8 9 10 8 6 6 6 5 8 7 9 9 6 4 3 3 5 4 3 6 8 8 8 9 9 6
8 10 16 17 14 18 18 22 22 19 17 15 14 13 8 9 7 6 8 8 6 5 5 5 5 6 4 5 5 4 4 3 6 9 9 7 8 8 10 8 8 7 6
11 12 17 17 18 18 19 24 23 20 14 17 18 11 8 7 4 6 7 6 4 4 3 2 5 3 3 3 6 5 5 4 7 9 11 10 7 7 8 6 5 5 4
12 14 15 13 16 21 22 25 24 20 19 17 16 13 11 8 7 8 6 4 3 3 1 0 3 2 4 10 10 7 3 8 8 10 11 9 7 7 6 6 7 6 6
12 10 16 15 16 21 21 22 24 23 21 17 16 15 12 10 7 5 4 4 4 3 3 2 3 7 8 11 13 11 2 8 12 9 12 10 8 9 9 10 8 6 6
6 7 16 13 15 18 20 23 21 19 17 20 16 12 10 9 7 5 4 4 3 2 2 5 8 10 13 16 18 16 10 8 7 7 12 12 11 12 11 10 9 9 8
6 8 17 15 13 18 19 18 19 20 19 19 14 13 11 9 10 6 4 3 2 2 3 8 11 15 21 23 22 24 19 6 10 16 14 14 14 14 15 11 10 10 8
11 9 17 19 19 20 17 18 19 21 19 15 14 10 10 12 10 9 4 5 2 2 3 8 12 17 19 17 22 22 15 22 7 8 13 13 16 17 17 13 12 12 10
11 12 13 16 22 19 21 13 17 18 17 15 13 12 11 11 6 7 6 4 3 3 2 6 9 15 20 25 28 22 19 18 18 16 14 14 14 16 16 15 12 13 12
12 10 16 20 22 22 17 15 20 17 15 14 16 11 7 7 5 6 5 3 1 2 1 2 8 12 16 18 18 19 16 20 17 15 11 11 12 11 13 15 14 13 13
12 11 15 16 17 17 15 23 17 17 13 13 10 13 7 9 7 11 8 10 1 2 3 2 7 10 11 15 12 15 21 16 16 15 12 10 10 10 9 11 12 12 11
7 10 13 13 16 14 16 21 16 15 12 11 15 8 7 7 5 2 8 8 6 2 5 3 6 7 9 12 13 15 16 14 14 15 10 8 8 9 7 9 11 12 12
8 7 10 11 13 14 5 16 14 11 12 13 10 10 8 10 3 1 8 7 2 7 4 1 5 8 10 12 15 15 16 19 15 11 14 9 9 8 5 9 10 12 13
9 8 10 8 8 12 14 14 15 14 12 10 9 7 10 8 6 3 5 3 3 7 6 4 3 7 11 11 15 14 15 17 20 14 13 11 13 8 8 7 13 14 14
10 12 10 12 8 8 10 13 12 12 14 14 12 11 10 6 6 5 6 2 4 5 7 4 2 4 7 11 10 14 13 15 14 18 19 16 18 12 10 10 12 13 14
13 14 14 16 13 12 15 14 14 15 16 16 11 9 9 7 6 6 3 6 6 5 6 4 0 2 8 8 10 14 13 13 13 16 16 15 16 7 8 6 8 11 13
18 17 15 16 15 14 14 12 14 14 12 17 13 11 10 9 8 6 5 5 6 8 6 4 7 5 5 4 7 13 11 9 10 11 16 15 18 15 11 11 8 12 11
21 19 14 17 17 16 17 15 12 14 13 13 13 11 9 8 8 8 8 7 7 6 5 5 6 4 3 2 6 11 10 10 8 9 15 16 19 18 13 10 11 10 9

GFSSE_500_spd_162.txt.gz
Wind_Speed
10 11 12 13 13 11 8 5 17 18 14 12 11 9 8 6 4 3 3 3 3 1 2 0 2 4 3 6 8 8 8 8 7 5 5 4 5 5 3 3 2 2 2
12 13 15 13 14 13 11 8 15 22 17 13 11 10 10 7 5 3 4 3 2 3 1 4 4 4 7 10 10 9 7 6 4 4 5 5 4 3 3 3 2 3 3
9 14 13 13 11 14 13 11 13 24 19 15 12 10 9 8 5 4 4 4 5 1 4 4 4 6 9 11 7 7 6 5 4 4 5 5 4 5 5 4 5 5 4
10 13 14 15 14 13 14 12 16 23 22 15 12 10 9 7 4 4 4 4 3 3 4 3 5 7 8 6 7 5 6 5 4 6 4 4 3 4 3 3 4 5 6
13 14 15 16 17 13 12 9 20 22 21 16 12 12 12 7 4 4 5 4 2 3 3 3 6 6 5 7 6 4 5 5 6 5 3 2 3 4 2 3 4 4 3
6 12 16 18 17 16 14 14 22 22 20 18 13 13 11 7 5 5 4 3 2 1 2 4 5 5 5 5 5 4 5 6 6 6 5 5 6 6 5 5 5 7 3
4 11 15 18 19 19 17 18 24 21 18 16 15 12 8 6 4 4 4 2 1 1 1 4 4 5 5 4 3 4 3 4 4 6 6 6 7 6 5 4 7 10 7
5 13 15 20 19 20 21 20 18 20 17 13 11 9 6 4 3 2 1 1 1 0 2 3 3 4 4 5 5 5 5 5 7 7 4 2 3 5 4 4 7 9 7
5 12 15 17 17 18 19 21 19 16 15 11 9 9 6 4 3 1 1 1 2 0 2 1 1 2 3 6 8 9 8 6 3 2 2 2 5 5 5 5 6 6 5
8 9 15 17 16 18 22 22 21 22 15 10 14 10 8 5 4 2 2 2 2 1 0 3 3 5 10 15 16 14 13 9 6 6 4 1 2 3 2 4 5 5 5
9 11 15 18 17 16 20 24 23 17 12 12 11 11 7 6 4 2 2 2 2 2 2 7 10 11 13 15 17 17 10 8 13 8 8 4 4 4 6 6 5 3 3
8 13 18 18 18 17 17 21 20 17 14 13 12 11 8 6 5 3 1 1 1 1 4 8 11 14 18 27 23 23 11 6 9 8 8 7 5 4 8 7 6 4 4
9 14 15 12 18 18 19 23 22 16 14 14 14 12 10 7 6 4 2 1 2 2 7 10 13 17 21 28 28 23 22 2 8 10 10 10 9 9 11 8 8 8 5
4 13 14 12 18 21 22 22 20 18 14 12 13 12 10 10 8 6 3 2 1 4 8 10 12 15 25 25 23 18 13 9 5 17 13 12 12 12 11 10 10 7 4
5 12 16 13 20 21 21 21 19 17 14 17 15 12 11 9 7 5 5 4 1 4 6 9 11 18 29 25 20 15 25 18 21 18 14 12 12 13 13 12 10 9 9
2 11 18 15 15 18 21 22 19 18 17 16 12 11 8 8 7 4 5 5 3 4 6 7 11 18 20 28 28 19 21 18 17 14 9 8 11 11 15 14 12 11 11
8 13 17 15 13 13 17 17 19 21 17 14 12 8 6 5 6 5 3 4 2 3 4 7 13 16 21 19 21 17 20 17 14 12 7 10 9 10 13 14 12 13 13
9 12 14 15 17 16 13 20 21 19 14 13 10 7 8 11 9 8 3 5 2 1 2 6 9 15 15 17 15 18 15 13 13 10 9 8 9 10 12 13 14 14 14
10 13 13 10 18 17 13 17 21 18 17 13 13 11 9 5 6 5 3 7 2 3 1 4 7 10 12 10 10 16 15 11 6 10 10 10 10 9 10 14 13 11 12
8 15 18 16 20 15 11 18 18 18 14 12 11 11 5 9 3 2 6 6 4 4 1 3 6 8 8 7 13 17 22 16 14 14 14 13 9 8 11 12 10 12 13
10 9 17 18 16 16 20 16 13 15 13 11 13 8 9 7 5 2 1 3 5 9 4 5 7 7 8 9 12 15 18 18 15 15 13 9 9 9 9 8 9 11 13
11 13 10 13 15 15 18 16 13 13 12 12 12 11 9 7 6 3 4 3 6 8 4 2 5 6 6 7 13 12 14 13 19 19 16 15 11 8 8 10 10 11 13
9 12 13 11 14 11 15 13 13 12 13 13 14 9 8 5 4 5 4 1 6 5 3 1 2 5 6 8 11 10 11 14 14 12 12 13 8 7 7 7 11 13 14
11 11 11 14 12 13 13 13 13 12 12 11 8 6 7 6 6 5 5 5 4 2 1 1 1 5 6 6 10 10 10 12 12 13 13 13 13 4 6 5 10 13 14
13 13 11 12 11 9 11 13 10 12 10 11 8 9 8 8 7 4 5 7 6 5 3 2 3 4 2 4 8 9 7 8 10 13 16 15 14 16 8 7 9 12 13
14 14 15 15 14 11 11 12 15 14 13 13 10 10 9 8 7 6 6 6 6 5 5 6 6 3 3 2 6 7 5 7 8 11 13 14 14 10 10 9 9 12 11

GFSSE_500_spd_165.txt.gz
Wind_Speed
15 15 11 11 13 13 11 13 15 13 9 8 6 5 5 6 5 7 5 4 4 4 2 2 3 5 6 4 5 5 5 4 3 3 3 3 3 4 3 2 2 1 2
16 16 16 15 15 12 10 11 18 16 13 10 8 5 5 5 6 6 3 3 4 3 2 3 5 7 6 6 5 5 5 4 3 2 3 4 3 4 3 3 3 3 3
17 18 18 17 15 14 12 10 15 19 16 12 9 6 6 6 6 3 2 5 3 1 1 5 5 5 6 5 7 4 4 3 4 4 5 4 4 3 4 4 4 4 4
16 21 19 19 15 15 14 10 16 22 16 12 7 8 7 6 5 3 3 3 1 1 5 5 4 7 8 6 6 5 4 3 3 5 5 5 4 3 4 4 3 3 4
13 19 20 18 16 17 16 11 15 23 18 14 11 8 7 6 5 5 4 2 1 4 5 5 7 7 6 6 6 6 5 4 5 6 4 4 3 2 2 2 1 2 5
12 14 17 18 16 14 14 12 19 21 19 15 11 8 7 6 6 4 4 2 4 5 6 8 6 7 7 8 7 7 5 5 5 2 2 2 2 2 2 3 4 4 7
8 14 16 18 18 16 14 13 22 19 15 12 8 8 6 7 5 4 4 3 6 9 7 7 8 8 10 14 16 15 13 11 8 7 0 2 1 3 3 4 7 10 10
5 11 15 18 19 19 18 17 17 18 12 9 10 9 10 6 5 5 3 6 9 7 9 9 9 11 13 16 19 17 16 15 9 8 6 0 2 3 4 4 5 10 7
4 12 16 19 19 20 18 8 18 16 14 12 10 6 9 6 5 3 5 7 9 8 11 13 11 11 11 15 19 18 17 19 16 10 6 3 3 2 3 6 4 5 6
7 11 15 17 17 17 18 14 14 14 12 7 6 8 9 8 4 4 6 8 9 11 10 11 10 11 13 16 22 25 18 14 15 10 4 3 5 4 4 5 3 3 4
5 11 16 18 18 18 22 18 14 15 10 5 7 8 9 8 4 6 8 7 10 9 10 11 12 15 17 20 27 26 18 8 10 7 5 3 4 6 9 5 2 2 1
5 11 17 19 18 18 19 19 17 16 12 11 11 9 10 7 6 6 8 7 10 9 8 11 13 17 23 25 24 21 11 5 7 1 7 7 7 7 7 6 4 2 1
4 10 18 17 16 15 18 18 18 16 12 10 11 10 9 8 8 8 7 10 10 5 6 11 14 19 25 25 21 13 11 5 12 8 11 11 8 6 7 7 7 4 3
6 9 16 17 19 18 16 23 20 15 13 12 13 11 9 8 7 7 9 8 8 4 6 10 13 19 26 26 19 23 13 11 14 12 14 13 9 7 7 8 9 9 6
4 10 12 10 18 19 18 23 19 16 12 15 14 10 9 8 7 8 7 6 6 3 7 9 13 19 25 20 22 20 21 18 14 13 12 13 10 11 9 9 9 7 3
6 10 15 11 19 20 19 21 18 17 13 17 14 11 9 8 6 7 5 5 6 5 7 8 13 18 20 17 17 18 17 14 11 12 11 10 9 10 11 9 7 5 5
6 14 17 16 17 18 20 18 16 16 16 18 13 10 9 9 6 5 5 4 3 5 6 6 12 15 17 15 15 13 12 8 6 7 6 6 6 8 10 10 8 6 6
6 18 17 17 19 14 16 18 18 19 20 15 14 11 9 9 7 7 5 5 3 4 4 6 11 14 17 14 15 16 15 9 7 9 9 8 8 8 7 10 9 7 6
8 12 14 17 18 17 18 20 20 19 17 15 13 10 7 5 8 8 4 5 3 4 3 3 9 11 13 12 12 16 18 15 11 12 14 8 7 5 7 9 9 7 8
8 12 14 17 20 16 19 20 20 16 14 11 12 9 6 7 5 6 7 7 3 4 2 3 8 8 9 7 8 10 15 14 14 15 9 6 5 5 9 11 10 9 9
8 9 14 14 15 17 15 18 17 14 13 10 11 10 4 7 3 7 8 5 6 3 4 5 6 6 6 5 5 8 12 14 16 18 11 6 8 10 11 11 11 10 11
11 10 15 17 13 17 21 17 17 15 12 11 12 8 8 8 5 7 5 3 5 6 6 4 5 6 6 5 3 6 11 12 15 14 12 11 9 9 9 11 12 12 12
11 11 14 17 15 14 20 16 14 14 12 12 8 9 8 8 8 7 4 3 5 5 5 4 4 5 6 3 3 7 6 9 11 13 14 10 6 8 9 11 13 12 12
14 14 14 13 15 11 17 15 16 14 13 12 10 7 10 10 9 7 7 4 4 5 7 5 4 7 6 2 2 4 4 9 10 11 9 13 9 9 9 9 11 12 13
17 16 15 14 14 13 13 12 12 12 12 11 10 11 11 10 9 9 8 8 7 5 5 4 7 7 4 0 1 1 2 7 8 9 11 12 13 9 11 10 10 10 12
18 18 17 17 13 12 14 14 14 12 10 13 11 10 9 9 7 6 7 10 9 7 4 4 6 3 1 2 1 3 2 4 6 7 7 9 9 10 9 9 8 9 10

GFSSE_500_spd_168.txt.gz
Wind_Speed
18 17 11 10 17 14 11 10 10 9 7 5 3 3 5 6 7 4 5 4 5 7 8 5 3 2 2 3 1 3 2 1 2 3 4 2 2 2 2 2 2 2 3
16 18 13 12 15 13 12 10 11 9 10 7 5 3 4 5 6 5 5 5 7 9 6 5 2 3 3 3 3 3 3 4 4 3 2 3 3 1 2 2 1 2 3
16 17 15 16 15 12 10 9 11 13 9 7 7 5 4 4 6 5 5 7 10 8 7 8 6 6 6 6 7 6 5 4 4 3 2 3 4 1 2 3 2 3 4
20 18 18 16 15 13 11 9 10 16 13 10 10 8 8 6 7 8 7 9 9 7 8 7 7 7 9 8 9 9 7 5 4 2 4 3 3 2 3 2 2 3 5
17 19 19 18 15 14 13 9 10 16 15 13 13 12 12 8 8 10 7 7 8 8 9 7 9 9 11 11 9 6 6 8 2 3 1 2 3 3 2 1 1 3 5
11 15 19 18 16 15 14 12 11 18 17 13 9 9 6 8 10 9 8 9 10 10 10 11 12 12 11 12 13 11 8 10 3 4 2 2 3 2 1 1 5 6 6
9 12 15 17 17 14 12 11 13 19 19 13 8 6 8 11 11 9 9 11 12 13 13 13 11 10 10 12 13 13 9 9 14 3 5 1 3 2 3 2 3 12 11
7 13 17 17 17 15 12 8 18 19 15 11 8 7 9 11 9 9 11 12 15 13 11 10 7 10 11 13 16 23 20 16 22 10 8 2 1 2 3 4 6 9 9
6 14 15 19 17 15 15 12 18 19 7 9 8 9 11 11 10 9 12 14 13 10 9 8 9 12 13 15 21 26 23 14 17 10 6 3 2 2 2 4 6 6 5
7 13 14 16 15 15 14 9 21 15 11 7 7 11 11 11 10 10 12 12 11 7 8 10 11 15 19 21 20 22 18 7 8 7 4 3 1 2 9 6 5 4 6
6 11 15 17 15 16 16 10 16 15 10 6 11 11 11 11 11 10 11 10 7 7 8 12 15 18 22 28 23 18 11 7 6 8 6 4 4 7 9 5 3 3 4
8 12 15 17 18 16 15 13 7 14 10 11 13 10 10 11 11 11 11 7 6 6 12 11 15 19 22 25 16 16 8 6 6 5 8 7 8 6 7 6 2 1 4
6 12 16 17 16 14 12 12 11 11 9 12 11 10 9 10 10 12 10 7 4 9 8 12 16 22 22 23 23 13 14 13 9 10 8 9 6 5 5 3 2 1 3
6 9 15 17 17 15 15 16 13 11 12 10 11 11 10 10 10 11 10 6 4 6 7 11 16 18 19 22 21 18 20 14 11 11 11 12 7 7 3 3 3 2 0
3 6 14 17 17 17 17 17 15 12 9 13 14 12 10 9 10 10 9 6 4 3 6 10 14 14 14 17 17 16 13 11 10 11 11 10 8 7 5 5 6 4 2
5 6 12 12 16 21 17 19 17 14 12 12 13 10 10 10 10 9 8 6 3 2 4 9 12 10 12 13 13 12 8 7 7 9 7 6 6 6 6 6 7 5 3
8 9 16 11 15 20 17 22 19 17 10 12 11 11 11 11 10 7 7 5 3 2 3 7 10 9 9 13 15 16 14 8 3 4 6 5 5 5 8 8 8 6 3
6 12 14 11 18 19 20 21 19 15 11 16 13 12 11 10 9 6 4 4 3 1 2 5 7 8 9 11 15 18 15 18 8 10 7 6 6 7 10 12 10 8 5
8 19 11 14 16 14 16 20 17 17 17 15 14 12 11 10 9 7 5 4 3 2 1 3 4 5 7 10 12 15 16 16 13 16 10 6 7 8 9 11 10 8 3
9 21 13 13 15 15 15 16 18 19 17 15 13 11 10 7 10 9 7 7 4 3 1 0 3 4 5 8 10 12 16 16 16 10 5 8 8 9 10 11 11 8 6
12 15 22 20 15 11 16 16 17 16 17 15 13 13 10 9 7 6 9 7 8 5 4 2 2 3 3 5 8 10 9 12 13 12 8 6 8 9 11 11 10 10 9
8 16 19 20 18 14 15 17 18 16 15 12 15 12 11 10 6 9 7 6 7 6 8 3 1 2 1 4 7 7 9 11 10 8 7 5 8 10 10 10 11 11 11
8 11 15 17 15 17 18 17 18 15 12 13 14 13 10 10 9 8 6 4 7 12 4 4 3 3 3 3 4 6 7 9 12 11 10 5 10 9 8 10 11 11 12
12 12 16 14 12 14 19 16 15 14 13 16 12 11 9 9 10 10 9 5 5 6 7 7 5 6 3 1 2 3 4 6 9 11 9 9 11 10 10 10 10 11 12
13 13 15 16 16 13 20 16 14 13 13 12 11 10 11 10 10 9 8 7 7 7 8 7 7 6 3 2 3 3 3 3 6 8 10 10 8 11 9 9 9 10 11
14 14 15 16 16 14 16 15 14 14 13 13 12 11 11 9 8 7 7 8 8 7 7 7 8 4 2 2 3 4 3 3 3 7 7 8 8 9 8 9 10 10 9

GFSSE_500_spd_171.txt.gz
Wind_Speed
16 15 13 13 15 14 11 8 7 6 5 4 4 6 7 6 7 7 9 9 9 9 8 6 6 5 6 5 5 5 4 6 5 5 5 6 3 2 2 3 4 4 3
16 15 12 11 18 15 10 9 9 9 8 6 5 6 6 6 6 7 9 10 9 10 7 7 7 7 6 6 7 6 7 5 7 4 5 4 4 3 3 3 3 0 1
13 18 11 11 14 13 9 7 9 11 10 7 7 7 7 6 6 8 10 9 10 8 8 7 8 5 5 8 8 9 7 4 5 2 2 5 2 2 1 1 1 1 1
15 18 13 11 12 11 9 8 9 11 11 8 8 7 9 9 9 10 11 10 9 8 7 8 6 6 8 10 10 8 7 6 6 1 3 3 1 1 1 0 0 1 2
15 16 15 13 13 11 10 10 8 10 12 8 8 14 9 12 10 11 11 9 9 10 9 9 7 7 8 10 8 8 5 10 14 7 5 1 2 2 2 1 2 2 3
13 17 15 14 13 12 11 11 8 11 12 12 13 10 14 16 12 11 11 10 11 10 9 7 6 6 8 9 9 12 18 9 16 4 5 3 1 3 3 3 5 4 4
11 12 16 16 14 12 13 12 12 11 13 14 11 13 20 15 14 12 12 11 11 8 7 6 6 7 8 10 13 19 17 14 17 3 10 6 0 3 2 2 4 7 7
7 12 15 17 17 15 14 8 11 11 13 10 11 18 17 15 15 13 11 11 9 6 8 7 10 13 16 18 19 20 17 9 12 10 11 8 4 2 2 1 5 9 8
7 13 16 17 17 16 13 9 8 14 16 10 13 18 15 16 15 12 11 10 7 10 9 10 14 18 20 20 18 14 10 8 10 4 8 7 2 3 3 3 5 7 6
7 13 14 17 17 16 13 16 9 12 13 13 9 16 15 15 12 11 10 8 9 8 9 13 17 17 25 21 20 17 12 4 5 7 2 6 5 4 8 5 6 6 4
6 12 13 13 18 15 12 6 13 12 11 13 15 15 14 13 11 10 9 8 8 7 11 16 17 11 18 16 11 5 4 2 6 5 4 6 8 10 8 4 5 6 5
8 11 13 14 14 14 9 7 13 16 13 14 15 14 13 11 9 8 8 7 7 8 11 16 16 16 18 18 15 11 11 6 5 5 8 7 8 8 5 3 4 5 5
7 13 15 16 15 11 6 7 7 14 15 13 13 12 10 10 8 6 8 6 6 9 11 13 14 16 19 17 22 14 8 7 7 9 10 8 7 6 5 4 2 3 5
6 10 16 15 14 10 8 8 4 7 11 10 11 10 8 8 6 5 6 4 7 7 9 12 13 12 18 19 17 17 9 7 9 11 12 11 8 7 6 5 3 3 5
5 8 12 13 13 11 11 13 10 10 9 10 11 9 8 7 6 5 5 3 5 5 8 10 10 11 15 16 15 9 9 7 7 6 9 10 10 9 9 6 5 3 2
5 7 9 11 12 10 11 14 14 12 10 13 12 9 9 7 5 5 4 2 4 5 6 9 9 8 12 14 16 16 14 2 1 4 8 9 10 10 9 7 6 5 4
7 7 11 11 11 12 15 12 14 13 11 13 12 10 9 7 6 5 3 2 3 3 4 8 8 8 9 14 17 17 16 5 2 4 7 8 9 10 10 10 9 8 7
10 12 12 12 12 12 16 14 17 15 11 13 12 11 9 9 8 6 3 3 1 2 3 5 7 7 9 13 16 19 12 8 10 9 10 9 9 8 10 12 13 13 10
7 13 13 10 11 13 13 16 16 15 13 16 13 11 11 11 10 7 4 3 2 3 3 4 6 5 7 11 14 19 19 17 14 15 12 10 10 10 7 12 12 12 10
7 15 11 10 13 15 14 14 15 14 12 15 13 10 12 12 11 9 6 5 3 4 5 2 4 6 8 9 12 12 14 15 13 10 11 10 9 10 11 12 13 12 11
6 18 12 13 12 12 13 14 16 15 17 13 11 12 10 10 9 10 10 6 6 4 3 2 3 4 6 7 8 10 11 12 14 12 9 7 7 9 10 12 12 14 14
5 12 14 16 13 10 12 14 15 15 14 13 13 14 11 9 7 8 7 6 7 8 6 3 3 4 5 6 6 11 13 16 18 11 9 5 7 8 10 11 14 15 15
4 10 15 17 15 12 15 16 16 13 13 13 14 13 10 11 7 6 4 4 7 10 8 5 3 3 3 5 6 7 6 8 9 14 10 6 6 8 9 11 13 14 14
5 7 10 16 15 17 15 16 15 14 14 13 13 14 13 11 11 7 6 4 4 11 9 7 4 3 2 5 7 5 8 12 14 11 11 8 9 7 9 10 12 12 12
6 7 11 11 10 13 18 17 15 15 14 15 14 12 12 11 9 8 7 9 6 6 6 6 3 1 2 5 7 4 4 5 9 7 9 8 7 8 8 9 9 9 10
10 10 11 13 13 11 15 17 15 15 14 15 15 15 11 9 7 8 8 9 7 6 6 5 4 4 3 3 4 4 3 2 7 5 7 8 7 7 6 7 9 8 9